HAWK-7A

Last updated on Sun Jun 21 2026 00:03:43 GMT+0000 (Coordinated Universal Time)

1 56191U 23054P 26171.25505014 .00004519 00000+0 17122-3 0 9999 2 56191 97.2695 58.5139 0004119 50.4513 309.7090 15.27387139177498
UTC large
Height (km)
Speed (km/s)
/
Latitude / Longitude
Inclination (degrees)
Orbital Period (minutes)
Azimuth
Elevation
Range (km)
Doppler Factor

Next 0 passes for location: London (51.5072 / 0.1276)

No passes found over London.
HAWK-7A